Stündliche Wetter Baronissi

Heute, 29 Oktober, Donnerstag

Zeit Temperatur Niederschläge Wind Luftdruck Luftfeuchtigkeit
00:00 +14°C° 0 mm 1 m/S 741 mmHg 76%
01:00 +14°C° 0 mm 1 m/S 741 mmHg 76%
02:00 +14°C° 0 mm 1 m/S 741 mmHg 77%
03:00 +14°C° 0 mm 1 m/S 741 mmHg 78%
04:00 +14°C° 0 mm 1 m/S 741 mmHg 78%
05:00 +13°C° 0 mm 1 m/S 741 mmHg 79%
06:00 +13°C° 0 mm 1 m/S 742 mmHg 80%
07:00 +13°C° 0 mm 1 m/S 742 mmHg 81%
08:00 +15°C° 0 mm 1 m/S 743 mmHg 75%
09:00 +16°C° 0 mm 1 m/S 743 mmHg 70%
10:00 +18°C° 0 mm 2 m/S 743 mmHg 64%
11:00 +19°C° 0 mm 2 m/S 743 mmHg 60%
12:00 +19°C° 0 mm 3 m/S 743 mmHg 56%
13:00 +20°C° 0 mm 3 m/S 743 mmHg 52%
14:00 +19°C° 0.1 mm 3 m/S 743 mmHg 58%
15:00 +18°C° 0.1 mm 3 m/S 743 mmHg 64%
16:00 +18°C° 0.1 mm 3 m/S 743 mmHg 71%
17:00 +17°C° 0.1 mm 2 m/S 743 mmHg 74%
18:00 +17°C° 0.1 mm 2 m/S 743 mmHg 76%
19:00 +17°C° 0.1 mm 2 m/S 743 mmHg 79%
20:00 +16°C° 0.1 mm 1 m/S 744 mmHg 80%
21:00 +16°C° 0.1 mm 1 m/S 744 mmHg 81%
22:00 +16°C° 0.1 mm 1 m/S 744 mmHg 82%
23:00 +15°C° 0 mm 1 m/S 744 mmHg 82%

Morgen, 30 Oktober, Freitag

Zeit Temperatur Niederschläge Wind Luftdruck Luftfeuchtigkeit
00:00 +15°C° 0 mm 1 m/S 744 mmHg 82%
01:00 +15°C° 0 mm 1 m/S 744 mmHg 82%
02:00 +15°C° 0 mm 1 m/S 744 mmHg 82%
03:00 +15°C° 0 mm 1 m/S 744 mmHg 82%
04:00 +14°C° 0 mm 1 m/S 744 mmHg 82%
05:00 +14°C° 0 mm 2 m/S 744 mmHg 82%
06:00 +14°C° 0 mm 2 m/S 744 mmHg 82%
07:00 +14°C° 0 mm 2 m/S 744 mmHg 82%
08:00 +16°C° 0 mm 2 m/S 745 mmHg 75%
09:00 +17°C° 0 mm 2 m/S 745 mmHg 68%
10:00 +18°C° 0 mm 2 m/S 745 mmHg 61%
11:00 +19°C° 0 mm 2 m/S 745 mmHg 56%
12:00 +21°C° 0 mm 1 m/S 745 mmHg 51%
13:00 +22°C° 0 mm 1 m/S 745 mmHg 47%
14:00 +21°C° 0 mm 1 m/S 745 mmHg 49%
15:00 +21°C° 0 mm 1 m/S 745 mmHg 51%
16:00 +21°C° 0 mm 1 m/S 745 mmHg 53%
17:00 +20°C° 0 mm 1 m/S 745 mmHg 58%
18:00 +18°C° 0 mm 1 m/S 745 mmHg 63%
19:00 +16°C° 0 mm 1 m/S 745 mmHg 68%
20:00 +16°C° 0 mm 1 m/S 746 mmHg 69%
21:00 +15°C° 0 mm 2 m/S 746 mmHg 70%
22:00 +15°C° 0 mm 2 m/S 746 mmHg 72%
23:00 +15°C° 0 mm 2 m/S 746 mmHg 70%

übermorgen, 31 Oktober, Samstag

Zeit Temperatur Niederschläge Wind Luftdruck Luftfeuchtigkeit
00:00 +14°C° 0 mm 2 m/S 746 mmHg 69%
01:00 +14°C° 0 mm 2 m/S 746 mmHg 67%
02:00 +14°C° 0 mm 2 m/S 746 mmHg 65%
03:00 +14°C° 0 mm 1 m/S 746 mmHg 63%
04:00 +14°C° 0 mm 1 m/S 746 mmHg 61%
05:00 +14°C° 0 mm 1 m/S 746 mmHg 59%
06:00 +14°C° 0 mm 1 m/S 745 mmHg 57%
07:00 +14°C° 0 mm 1 m/S 745 mmHg 55%
08:00 +16°C° 0 mm 1 m/S 746 mmHg 49%
09:00 +19°C° 0 mm 1 m/S 746 mmHg 43%
10:00 +19°C° 0 mm 0 m/S 746 mmHg 36%
11:00 +22°C° 0 mm 1 m/S 746 mmHg 35%
12:00 +23°C° 0 mm 1 m/S 746 mmHg 34%
13:00 +23°C° 0 mm 1 m/S 745 mmHg 33%
14:00 +23°C° 0 mm 1 m/S 745 mmHg 37%
15:00 +22°C° 0 mm 1 m/S 745 mmHg 41%
16:00 +21°C° 0 mm 1 m/S 745 mmHg 45%
17:00 +20°C° 0 mm 1 m/S 745 mmHg 49%
18:00 +19°C° 0 mm 1 m/S 745 mmHg 53%
19:00 +18°C° 0 mm 1 m/S 745 mmHg 58%
20:00 +16°C° 0 mm 1 m/S 745 mmHg 59%
21:00 +16°C° 0 mm 1 m/S 745 mmHg 61%
22:00 +16°C° 0 mm 1 m/S 745 mmHg 62%
23:00 +15°C° 0 mm 1 m/S 745 mmHg 64%

1 November, Sonntag

Zeit Temperatur Niederschläge Wind Luftdruck Luftfeuchtigkeit
00:00 +15°C° 0 mm 1 m/S 744 mmHg 66%
01:00 +14°C° 0 mm 0 m/S 744 mmHg 68%
02:00 +14°C° 0 mm 0 m/S 744 mmHg 70%
03:00 +13°C° 0 mm 0 m/S 744 mmHg 72%
04:00 +13°C° 0 mm 0 m/S 744 mmHg 74%
05:00 +14°C° 0 mm 1 m/S 744 mmHg 75%
06:00 +14°C° 0 mm 1 m/S 744 mmHg 75%
07:00 +14°C° 0 mm 1 m/S 744 mmHg 75%
08:00 +16°C° 0 mm 1 m/S 744 mmHg 70%
09:00 +18°C° 0 mm 1 m/S 744 mmHg 65%
10:00 +20°C° 0 mm 1 m/S 745 mmHg 60%
11:00 +21°C° 0 mm 1 m/S 745 mmHg 58%
12:00 +21°C° 0 mm 1 m/S 744 mmHg 57%
13:00 +21°C° 0 mm 2 m/S 744 mmHg 56%
14:00 +20°C° 0 mm 2 m/S 744 mmHg 60%
15:00 +19°C° 0 mm 2 m/S 744 mmHg 64%
16:00 +19°C° 0 mm 2 m/S 744 mmHg 68%
17:00 +19°C° 0 mm 1 m/S 744 mmHg 73%
18:00 +18°C° 0 mm 1 m/S 744 mmHg 78%
19:00 +16°C° 0 mm 1 m/S 744 mmHg 83%
20:00 +15°C° 0 mm 1 m/S 745 mmHg 84%
21:00 +15°C° 0 mm 1 m/S 745 mmHg 85%
22:00 +15°C° 0 mm 1 m/S 745 mmHg 86%
23:00 +15°C° 0 mm 1 m/S 745 mmHg 86%

2 November, Montag

Zeit Temperatur Niederschläge Wind Luftdruck Luftfeuchtigkeit
00:00 +15°C° 0 mm 1 m/S 745 mmHg 86%
01:00 +15°C° 0 mm 1 m/S 745 mmHg 87%
02:00 +14°C° 0 mm 1 m/S 745 mmHg 87%
03:00 +14°C° 0 mm 1 m/S 744 mmHg 88%
04:00 +14°C° 0 mm 1 m/S 744 mmHg 89%
05:00 +14°C° 0 mm 1 m/S 744 mmHg 89%
06:00 +14°C° 0 mm 1 m/S 745 mmHg 89%
07:00 +14°C° 0 mm 1 m/S 745 mmHg 90%
08:00 +15°C° 0 mm 1 m/S 745 mmHg 84%
09:00 +18°C° 0 mm 1 m/S 745 mmHg 78%
10:00 +19°C° 0 mm 1 m/S 745 mmHg 72%
11:00 +19°C° 0 mm 1 m/S 745 mmHg 69%
12:00 +20°C° 0 mm 1 m/S 745 mmHg 67%
13:00 +19°C° 0 mm 2 m/S 745 mmHg 64%
14:00 +19°C° 0 mm 2 m/S 744 mmHg 66%
15:00 +18°C° 0 mm 2 m/S 744 mmHg 68%
16:00 +18°C° 0 mm 2 m/S 744 mmHg 70%
17:00 +17°C° 0 mm 2 m/S 744 mmHg 74%
18:00 +16°C° 0 mm 1 m/S 744 mmHg 78%
19:00 +16°C° 0 mm 1 m/S 744 mmHg 82%
20:00 +16°C° 0 mm 1 m/S 744 mmHg 82%
21:00 +16°C° 0 mm 1 m/S 744 mmHg 81%
22:00 +16°C° 0 mm 1 m/S 744 mmHg 81%
23:00 +16°C° 0 mm 1 m/S 744 mmHg 81%

3 November, Dienstag

Zeit Temperatur Niederschläge Wind Luftdruck Luftfeuchtigkeit
00:00 +16°C° 0 mm 1 m/S 743 mmHg 82%
01:00 +16°C° 0 mm 1 m/S 743 mmHg 82%
02:00 +15°C° 0 mm 1 m/S 743 mmHg 83%
03:00 +15°C° 0 mm 1 m/S 743 mmHg 84%
04:00 +15°C° 0 mm 1 m/S 743 mmHg 85%
05:00 +15°C° 0 mm 1 m/S 743 mmHg 85%
06:00 +16°C° 0 mm 1 m/S 743 mmHg 85%
07:00 +16°C° 0 mm 1 m/S 743 mmHg 85%
08:00 +16°C° 0.1 mm 1 m/S 743 mmHg 82%
09:00 +18°C° 0.1 mm 1 m/S 743 mmHg 79%
10:00 +18°C° 0.1 mm 1 m/S 743 mmHg 76%
11:00 +19°C° 0.1 mm 1 m/S 743 mmHg 74%
12:00 +18°C° 0.1 mm 2 m/S 743 mmHg 71%
13:00 +19°C° 0.1 mm 2 m/S 742 mmHg 69%
14:00 +18°C° 0 mm 2 m/S 742 mmHg 71%
15:00 +18°C° 0 mm 2 m/S 742 mmHg 72%
16:00 +18°C° 0 mm 2 m/S 742 mmHg 74%
17:00 +18°C° 0 mm 1 m/S 742 mmHg 77%
18:00 +16°C° 0 mm 1 m/S 742 mmHg 80%
19:00 +16°C° 0 mm 1 m/S 742 mmHg 83%
20:00 +16°C° 0 mm 1 m/S 743 mmHg 84%
21:00 +14°C° 0 mm 0 m/S 743 mmHg 85%
22:00 +14°C° 0 mm 0 m/S 743 mmHg 86%
23:00 +14°C° 0 mm 0 m/S 743 mmHg 86%
Mehr zeigen